Regional Weather Roundup
Issued by NWS Goodland, KS

Home | Current Version | Previous Version | Text Only | Print | Product List | Glossary Off
Versions: 1 2 3 4 5 6 7 8 9 10 11 12 13 14 15 16 17 18 19 20 21 22 23 24 25 26 27 28 29 30 31 32 33 34 35 36 37 38 39 40 41 42 43 44 45 46 47 48 49 50

813
ASUS43 KGLD 230959
RWRGLD

GOODLAND FORECAST AREA HOURLY WEATHER ROUNDUP
NATIONAL WEATHER SERVICE GOODLAND KS
300 AM MST THU NOV 23 2017

...OFFICIAL OBSERVATIONS...

CITY           SKY/WX    TMP DP  RH WIND       PRES   REMARKS
GOODLAND KS    CLOUDY    44  38  79 NW10      30.15F
HILL CITY KS   CLOUDY    44  37  76 W7        30.09R
IMPERIAL NEB   CLEAR     40  37  89 W6        30.14S
MCCOOK NEB     CLEAR     39  35  86 W8        30.10S
AKRON CO       CLOUDY    39  33  79 W8        30.21F
BURLINGTON CO  CLOUDY    41  35  79 W12       30.20S
LIMON CO       CLOUDY    41  34  76 W9        30.26S
$$

...UNOFFICIAL OBSERVATIONS...

CITY           SKY/WX    TMP DP  RH WIND       PRES   REMARKS
LENORA KS        N/A     46  32  58 W7          N/A
NORTON KS      CLEAR     36  30  80 W8        30.08
SHARON SPRINGS   N/A     43  37  80 NW5         N/A
KIT CARSON CO    N/A     45  35  69 MISG        N/A
YUMA CO        FAIR      41  34  75 W9        30.18F
$$




USA.gov is the U.S. government's official web portal to all federal, state and local government web resources and services.